Location: *
(50.2903°S, 172.5375°W)
Time: 08:44:34
(UTC+00:00)

STARLINK 1033 - Pass Details

Date: 17 November 2019
Orbit: 348 x 351 km, 53.0° (Epoch: 07 December)

Event Time Altitude Azimuth Distance (km) Brightness Sun altitude
Rises 12:07:55 0° 253° (WSW) 2,226 6.8 -19.8°
Reaches altitude 10° 12:09:59 10° 249° (WSW) 1,369 5.7 -19.7°
Maximum altitude 12:13:00 61° 167° (SSE) 420 3.2 -19.6°
Drops below altitude 10° 12:16:00 10° 85° (E) 1,349 5.7 -19.4°
Sets 12:18:01 0° 81° (E) 2,189 6.8 -19.3°
